Temperature
9 8 7 8 8 9 9 9 9 8 8 7 6 6 6 6 5 4 4 4 4 4 5 4 4 4 4 4 3 3 3 3 3 3 3 3 3 3 3 3 3 3 3 3
8 7 8 8 8 9 9 9 8 7 7 7 6 5 5 5 5 4 4 4 4 4 4 4 4 3 3 3 3 3 3 3 3 3 3 3 3 2 2 2 2 2 2 2
8 8 8 8 8 8 8 8 8 7 6 6 6 5 5 5 4 4 4 4 4 4 4 3 3 3 3 3 2 2 2 2 2 2 2 2 2 2 2 2 2 2 1 1
7 7 8 8 8 8 8 8 7 7 6 5 5 5 5 5 4 3 3 4 4 4 3 3 3 3 2 2 2 2 2 1 1 1 1 1 1 1 1 1 1 1 1 1
7 7 7 7 7 7 7 7 7 6 5 5 4 4 4 4 4 4 3 3 3 3 3 3 2 2 2 2 2 1 1 1 1 1 1 0 0 0 0 0 0 0 0 -0
6 6 7 7 6 7 6 6 5 4 4 5 5 4 4 3 4 4 3 3 3 3 3 3 2 2 2 1 1 1 1 1 0 0 0 -0 -0 -0 -1 -1 -1 -1 -1 -1
6 6 6 6 6 6 6 6 6 6 5 5 4 4 4 4 3 3 3 3 3 3 3 2 2 1 1 1 1 1 0 0 -0 -0 -0 -1 -1 -1 -1 -1 -1 -1 -1 -1
6 6 5 5 5 5 5 5 6 6 5 4 4 3 3 2 2 3 3 2 2 2 2 2 1 1 1 0 0 -0 -0 -0 -1 -1 -1 -1 -1 -2 -2 -2 -2 -2 -2 -2
5 5 5 5 5 5 5 4 5 4 3 3 3 2 2 2 2 1 1 1 1 1 1 1 1 1 0 0 -0 -0 -1 -1 -1 -1 -2 -2 -2 -2 -2 -2 -2 -2 -3 -3
5 4 4 4 4 4 4 4 3 3 4 4 4 2 3 2 1 0 -0 -0 0 1 0 0 0 -0 -0 -0 -1 -1 -1 -1 -2 -2 -2 -2 -2 -3 -3 -3 -3 -3 -3 -3
4 4 3 3 3 3 3 3 3 3 3 4 3 4 3 2 1 0 -0 0 -0 -0 -0 -0 -1 -1 -1 -1 -1 -1 -2 -2 -2 -2 -2 -3 -3 -3 -3 -3 -3 -4 -4 -4
3 2 2 2 2 2 3 3 2 3 3 2 2 3 2 1 0 0 -0 -0 -0 -1 -1 -1 -1 -1 -2 -2 -2 -2 -2 -2 -3 -3 -3 -3 -3 -4 -4 -4 -4 -4 -4 -4
3 2 3 3 3 1 1 2 2 2 2 1 1 3 1 -1 -1 -0 -1 -1 -1 -1 -1 -2 -2 -2 -2 -2 -2 -3 -3 -3 -3 -4 -4 -4 -4 -4 -4 -4 -4 -5 -5 -5
3 1 2 4 4 2 1 1 1 1 1 1 1 2 1 -0 -1 -1 -1 -1 -2 -2 -2 -2 -2 -3 -3 -3 -3 -3 -3 -4 -4 -4 -4 -4 -5 -5 -5 -5 -5 -5 -5 -5
2 1 1 1 2 1 1 1 1 1 1 1 2 1 1 -1 -1 -2 -2 -2 -3 -3 -3 -3 -3 -3 -3 -3 -4 -4 -4 -4 -5 -5 -5 -5 -5 -5 -6 -6 -6 -6 -6 -6
0 0 -0 0 1 1 1 1 1 1 1 0 0 0 -1 -1 -2 -2 -3 -3 -4 -4 -4 -4 -4 -4 -4 -4 -4 -5 -5 -5 -5 -5 -5 -6 -6 -6 -6 -6 -6 -6 -7 -7
-1 -1 -0 -0 -0 0 0 -0 -0 -0 -1 -1 -0 -1 -3 -3 -4 -4 -4 -4 -4 -4 -5 -5 -5 -5 -5 -5 -5 -5 -5 -5 -6 -6 -6 -6 -6 -6 -7 -7 -7 -7 -7 -7
-1 -1 -1 -1 -1 0 1 -1 -1 -2 -3 -3 -3 -3 -4 -4 -3 -3 -4 -4 -5 -5 -5 -5 -5 -5 -5 -5 -6 -6 -6 -6 -6 -6 -7 -7 -7 -7 -7 -7 -7 -8 -8 -8
-2 -1 -2 -2 -1 -0 -0 -1 -2 -2 -3 -4 -4 -4 -4 -4 -5 -5 -4 -4 -4 -5 -5 -5 -5 -6 -6 -6 -6 -6 -7 -7 -7 -7 -7 -7 -7 -8 -8 -8 -8 -8 -8 -8
-3 -2 -2 -2 -1 -0 0 -2 -3 -2 -2 -4 -4 -5 -5 -5 -5 -5 -4 -5 -5 -6 -6 -6 -6 -6 -6 -6 -7 -7 -7 -7 -7 -7 -7 -8 -8 -8 -8 -8 -8 -8 -9 -9
-3 -3 -3 -2 -2 -1 -3 -4 -3 -2 -2 -4 -4 -5 -6 -6 -5 -5 -5 -6 -6 -6 -6 -7 -7 -7 -7 -7 -7 -8 -8 -8 -8 -8 -8 -8 -8 -8 -9 -9 -9 -9 -9 -9
-3 -3 -3 -3 -2 -2 -5 -4 -4 -3 -4 -4 -5 -5 -5 -6 -6 -6 -6 -6 -7 -7 -7 -7 -7 -8 -8 -8 -8 -8 -8 -8 -8 -8 -8 -9 -9 -9 -9 -9 -9 -9 -9 -9
-4 -4 -4 -3 -3 -4 -5 -5 -4 -4 -5 -5 -5 -5 -6 -6 -7 -7 -7 -7 -7 -7 -8 -8 -8 -8 -8 -9 -9 -9 -9 -9 -9 -9 -9 -9 -9 -9 -9 -10 -10 -10 -10 -10
-6 -6 -6 -6 -6 -6 -5 -5 -5 -5 -5 -5 -5 -6 -6 -7 -7 -8 -8 -8 -8 -8 -8 -8 -9 -9 -9 -9 -9 -9 -9 -9 -9 -9 -9 -9 -10 -10 -10 -10 -10 -10 -10 -10
-6 -7 -7 -7 -7 -7 -6 -6 -6 -6 -6 -6 -6 -6 -7 -7 -8 -8 -8 -9 -8 -9 -9 -9 -9 -9 -9 -9 -9 -10 -10 -10 -10 -9 -10 -10 -10 -10 -10 -10 -10 -10 -10 -11
-8 -8 -7 -6 -6 -7 -6 -6 -6 -6 -6 -7 -7 -7 -7 -8 -8 -9 -9 -9 -9 -9 -9 -9 -9 -10 -10 -10 -10 -10 -10 -10 -10 -10 -10 -10 -10 -11 -11 -11 -11 -10 -11 -11
Wind_Speed
1 3 4 8 8 6 5 5 6 6 3 4 8 10 9 7 8 9 9 8 8 8 6 6 7 7 6 5 5 4 3 2 2 2 1 1 1 2 3 5 6 6 6 6
3 4 7 4 4 4 5 5 6 4 2 4 6 9 8 6 8 10 11 10 10 8 6 6 7 6 6 6 5 4 3 2 2 1 1 1 1 1 2 4 6 6 6 6
7 4 3 3 3 4 6 7 6 4 2 2 3 6 4 3 3 5 7 7 8 10 10 9 8 7 6 6 5 5 4 3 2 2 2 2 2 2 2 3 4 6 6 6
4 3 2 3 4 5 7 4 4 3 2 4 2 5 6 4 2 5 7 7 8 7 8 8 8 7 7 6 5 4 4 3 2 3 3 2 2 0 1 1 2 5 6 6
4 2 2 4 4 4 4 1 2 3 3 3 3 4 7 2 5 7 8 8 7 8 8 8 8 8 6 5 5 4 4 3 3 3 3 3 1 0 0 1 2 3 5 6
3 2 2 3 1 1 2 3 3 3 3 4 6 6 7 5 7 5 6 7 7 7 7 7 7 6 5 4 4 4 4 3 3 3 2 2 1 0 1 1 2 3 3 4
3 3 1 1 2 1 3 3 2 3 2 6 3 5 8 5 4 5 6 7 6 6 7 7 7 6 6 6 5 4 4 3 3 3 2 2 2 1 1 1 1 2 2 2
3 5 4 2 3 4 4 5 5 5 5 5 2 7 6 3 2 0 3 5 6 6 6 6 7 7 7 7 6 5 5 4 3 3 2 1 1 1 1 2 2 2 2 3
5 5 1 1 0 4 4 4 3 3 2 4 6 6 6 1 2 2 4 5 5 5 5 6 6 6 6 6 6 6 5 4 3 3 2 1 1 1 2 2 1 1 2 3
4 4 3 1 1 1 2 4 4 3 3 5 5 5 5 5 5 3 4 5 5 4 4 4 4 4 4 4 4 4 4 4 3 2 2 1 1 2 2 1 2 2 3 4
2 3 2 1 5 7 4 3 4 3 4 4 5 6 4 6 6 6 6 5 5 5 4 3 3 3 3 3 3 3 3 2 2 2 2 1 2 2 2 2 2 2 2 3
2 3 4 6 3 2 5 6 7 5 6 5 4 7 1 1 2 4 4 4 4 4 3 3 3 3 3 3 3 3 3 3 2 2 1 2 2 1 2 2 2 2 3 3
3 3 1 4 2 1 3 4 5 3 3 5 5 7 1 2 2 1 3 3 3 3 3 2 2 2 2 2 3 3 3 3 2 2 2 2 2 2 2 3 3 3 3 3
1 4 7 9 6 4 5 5 5 5 5 6 9 9 6 4 3 2 2 3 3 3 3 3 2 1 2 2 3 3 3 3 2 2 2 3 3 3 3 3 3 3 3 3
2 5 6 7 7 5 7 8 8 11 10 10 11 10 9 7 5 5 3 3 3 3 2 2 2 2 1 1 1 2 2 2 2 2 3 3 3 3 3 3 3 3 3 4
1 3 2 5 6 6 8 9 10 11 9 10 9 10 7 4 2 2 2 4 4 3 3 2 2 2 2 2 2 2 2 2 2 2 3 3 3 3 3 3 3 3 3 4
3 3 3 5 4 4 8 8 10 6 5 6 10 9 2 2 3 4 4 4 4 3 3 2 2 3 3 3 2 2 3 2 2 2 3 3 3 3 3 4 3 4 4 4
6 4 3 2 1 7 6 1 5 6 4 4 4 3 3 4 3 2 3 4 2 2 2 2 2 3 3 2 2 2 2 2 2 2 3 3 3 4 4 4 4 5 4 5
5 5 3 2 4 8 4 1 2 4 5 4 5 3 2 1 2 2 1 1 2 3 3 3 2 2 2 2 2 1 2 2 3 3 4 4 4 4 4 5 5 5 5 5
2 3 4 4 4 7 4 2 2 2 4 3 4 4 2 1 2 5 2 1 1 1 1 1 1 1 2 2 2 2 3 3 4 5 4 4 4 5 5 6 6 5 5 5
1 2 5 6 6 7 3 2 1 3 5 2 3 4 4 4 5 3 1 1 1 1 1 1 1 1 2 2 2 3 3 5 5 4 4 4 4 5 5 5 5 4 5 5
6 5 5 4 5 7 1 2 4 4 3 1 2 2 3 2 1 1 1 1 0 0 1 1 1 2 3 2 2 3 5 5 4 3 4 4 4 4 4 4 4 4 4 4
5 6 5 7 6 2 3 3 2 1 2 2 2 2 2 1 2 2 2 1 1 1 1 1 1 3 3 3 2 4 5 4 4 3 4 4 5 4 4 4 4 4 4 4
3 1 2 4 5 3 3 2 2 1 2 2 1 1 1 2 2 2 2 2 2 2 2 1 2 3 4 4 4 4 5 4 3 4 4 4 4 4 4 4 4 4 4 5
3 2 2 5 5 4 3 3 3 2 2 1 1 1 2 2 2 2 2 2 2 2 2 2 2 4 5 4 5 5 4 3 4 4 4 4 4 4 4 4 4 4 5 6
1 2 3 5 4 4 5 3 2 2 2 2 1 1 2 1 2 2 2 2 2 3 3 3 3 4 4 4 5 5 4 3 4 4 4 3 3 4 4 4 5 7 7 9
Wind_Direction
109 104 199 211 209 210 199 212 240 244 202 200 231 250 252 225 204 202 201 197 194 198 188 168 162 156 145 140 140 139 124 108 96 78 66 67 40 22 22 31 30 32 29 25
66 233 229 222 216 220 225 240 251 274 243 221 252 263 257 228 212 203 200 200 195 187 171 168 164 159 156 156 156 150 146 131 118 111 90 80 60 27 29 21 20 20 23 19
197 228 209 195 206 215 235 226 231 239 307 286 293 292 262 245 208 208 201 195 189 185 181 175 170 167 161 162 169 167 160 143 130 104 76 59 47 25 20 12 6 4 8 11
219 242 210 208 222 204 245 228 217 212 212 262 201 272 267 236 234 221 209 195 191 185 177 173 172 172 175 177 170 163 157 147 137 113 111 109 99 57 315 332 341 353 2 5
229 206 197 218 229 201 220 198 208 211 195 262 233 223 276 235 237 234 218 203 191 183 178 178 179 180 177 170 166 161 154 151 145 127 134 134 127 172 332 357 356 352 351 355
234 244 207 209 239 182 147 63 50 56 99 252 218 198 266 221 220 223 211 201 189 180 176 176 175 167 164 158 154 149 154 162 152 137 138 142 150 135 23 357 346 340 334 345
286 262 248 128 109 58 96 100 11 325 269 247 191 206 247 241 235 208 201 194 177 169 169 170 169 169 168 164 163 158 160 170 158 150 153 166 185 184 204 256 285 313 323 326
236 265 221 193 179 181 192 165 180 225 241 273 263 231 247 271 311 173 161 155 153 162 170 174 175 172 171 168 166 165 169 175 171 169 180 194 195 196 228 251 259 272 290 302
206 250 1 148 161 152 166 203 187 165 253 265 256 275 293 292 360 94 131 145 163 170 171 169 168 170 170 171 173 171 172 179 183 184 188 200 223 243 251 267 271 287 305 314
181 245 264 314 61 295 166 148 118 161 218 255 270 259 248 232 225 193 179 179 177 163 157 161 162 164 165 167 168 167 172 182 187 185 198 211 237 254 262 267 278 289 306 312
168 195 273 298 207 202 162 178 182 185 202 208 261 262 230 211 205 196 200 190 178 171 166 159 157 159 158 156 159 168 172 173 191 204 210 217 238 257 265 268 271 281 301 308
162 153 242 249 251 232 196 195 169 189 228 213 235 268 318 225 205 182 182 183 172 164 157 155 155 145 148 159 170 179 183 187 208 214 221 235 246 262 266 271 275 288 289 295
155 146 285 311 299 317 246 222 198 179 173 203 216 261 354 36 48 131 158 170 163 154 152 145 144 157 175 182 187 194 194 199 212 210 221 241 248 252 259 269 277 280 279 287
139 187 210 232 245 208 231 235 204 181 209 230 232 252 273 277 271 263 209 184 171 170 163 157 162 186 203 197 195 202 207 204 209 215 229 242 247 248 252 263 270 271 271 275
148 224 243 263 270 253 245 240 216 215 220 230 248 246 257 249 243 236 220 187 171 172 178 188 194 209 217 224 221 209 208 210 215 223 243 253 256 256 260 263 267 272 275 281
169 218 250 273 272 272 267 253 234 232 234 241 255 263 275 274 278 256 219 188 189 202 210 216 220 225 227 234 244 243 225 226 214 223 248 264 267 267 265 263 264 270 273 276
189 185 218 261 287 313 267 238 222 216 213 210 233 248 274 291 255 225 205 197 205 216 226 229 240 246 249 242 238 238 239 232 224 243 260 266 265 268 270 274 271 265 265 268
176 181 202 247 320 246 248 198 198 192 225 217 229 260 240 249 262 236 191 185 210 229 237 241 250 271 272 256 252 248 247 235 240 253 260 265 263 268 274 271 267 266 264 262
183 169 181 202 243 271 282 267 173 192 250 227 231 252 287 331 3 290 214 190 216 222 227 231 243 256 274 275 260 265 263 251 254 259 259 260 259 266 270 271 268 268 267 270
101 145 177 196 221 246 260 298 302 133 267 234 203 217 222 105 263 257 248 288 278 242 213 225 258 289 283 287 281 267 268 260 258 262 263 263 260 262 264 266 268 266 266 269
153 176 200 215 233 257 273 289 96 167 265 286 214 212 204 217 235 247 235 250 225 225 242 219 231 266 274 284 288 278 272 264 266 270 271 269 267 265 263 265 264 264 269 274
185 189 200 194 227 254 248 116 181 239 302 283 241 227 225 247 262 242 246 249 255 269 292 244 270 287 291 283 273 283 279 281 281 275 273 271 270 272 278 270 269 263 261 270
201 200 199 202 225 275 199 208 247 278 290 280 260 257 206 236 258 263 272 261 258 255 263 267 264 289 295 284 264 271 284 288 285 277 274 275 278 279 281 271 262 261 256 262
260 259 211 256 269 283 271 292 324 324 288 293 276 233 203 228 245 262 265 273 283 281 276 285 288 291 293 291 286 275 283 285 279 274 277 280 281 285 285 284 272 263 261 262
249 199 239 263 288 319 304 281 284 309 321 322 332 294 235 213 244 250 258 267 271 285 288 282 273 277 284 292 291 293 290 282 278 274 274 281 287 284 288 289 278 278 262 261
249 204 219 249 255 251 275 279 270 276 290 278 289 317 307 235 242 257 264 270 271 278 284 287 285 285 287 290 291 293 290 279 274 278 279 279 283 285 290 297 305 300 300 299
Height
1505 1509 1512 1509 1508 1507 1508 1511 1511 1509 1509 1512 1511 1509 1506 1505 1506 1507 1507 1507 1509 1510 1512 1514 1515 1517 1518 1519 1520 1521 1522 1523 1523 1523 1523 1523 1523 1523 1522 1522 1521 1521 1520 1519
1508 1509 1505 1505 1506 1507 1508 1509 1509 1509 1509 1510 1510 1507 1503 1502 1501 1501 1502 1503 1504 1507 1509 1511 1512 1514 1515 1516 1517 1518 1519 1520 1520 1520 1521 1521 1521 1520 1520 1520 1519 1519 1518 1517
1505 1504 1502 1504 1505 1506 1506 1507 1507 1509 1510 1510 1511 1506 1502 1498 1498 1499 1499 1500 1501 1502 1504 1507 1509 1510 1512 1513 1514 1516 1517 1517 1518 1518 1518 1518 1518 1518 1518 1517 1517 1516 1515 1515
1504 1502 1502 1503 1504 1504 1505 1504 1505 1507 1512 1515 1513 1512 1500 1497 1497 1496 1496 1497 1498 1500 1502 1504 1506 1507 1509 1511 1512 1513 1514 1515 1515 1515 1515 1515 1515 1515 1514 1514 1514 1513 1513 1512
1502 1501 1501 1502 1501 1502 1502 1503 1505 1506 1510 1514 1513 1514 1502 1497 1496 1493 1492 1493 1494 1497 1499 1501 1503 1505 1506 1508 1510 1511 1512 1513 1513 1512 1513 1513 1513 1513 1512 1512 1511 1511 1510 1509
1501 1500 1500 1500 1500 1501 1502 1504 1507 1510 1513 1512 1507 1512 1501 1497 1490 1488 1488 1489 1491 1493 1496 1498 1500 1502 1504 1506 1507 1508 1509 1510 1510 1509 1510 1510 1510 1510 1509 1509 1508 1507 1507 1506
1502 1500 1499 1499 1500 1502 1503 1507 1511 1510 1513 1506 1504 1506 1498 1488 1485 1484 1485 1486 1488 1491 1493 1495 1497 1499 1501 1502 1504 1505 1506 1507 1507 1507 1507 1507 1507 1507 1506 1506 1505 1504 1503 1502
1504 1502 1499 1498 1499 1501 1503 1504 1508 1508 1508 1506 1505 1503 1491 1486 1483 1482 1483 1485 1487 1489 1491 1493 1495 1496 1498 1499 1501 1502 1503 1503 1504 1504 1504 1504 1505 1504 1503 1503 1502 1501 1500 1499
1503 1500 1499 1498 1498 1499 1502 1505 1503 1509 1511 1511 1505 1500 1490 1484 1483 1483 1483 1485 1486 1488 1490 1491 1493 1495 1496 1497 1498 1499 1500 1500 1501 1501 1501 1501 1501 1500 1500 1499 1499 1498 1497 1496
1499 1502 1500 1499 1499 1499 1500 1502 1508 1509 1507 1504 1499 1499 1490 1484 1483 1484 1484 1484 1485 1487 1488 1490 1491 1493 1494 1495 1496 1497 1497 1498 1498 1498 1498 1498 1497 1497 1496 1496 1495 1494 1493 1492
1497 1502 1503 1502 1500 1499 1502 1503 1502 1506 1506 1504 1501 1491 1481 1479 1479 1481 1482 1482 1484 1485 1487 1488 1490 1491 1492 1493 1494 1494 1494 1494 1494 1494 1494 1494 1493 1493 1492 1491 1491 1490 1489 1488
1497 1502 1504 1500 1497 1496 1496 1496 1500 1502 1502 1504 1502 1490 1478 1478 1477 1479 1480 1482 1484 1485 1486 1487 1488 1489 1490 1490 1491 1491 1491 1491 1491 1491 1491 1490 1490 1489 1488 1487 1487 1486 1485 1484
1496 1501 1502 1496 1499 1499 1497 1495 1494 1496 1499 1503 1501 1487 1479 1478 1478 1479 1480 1481 1482 1483 1484 1485 1486 1486 1487 1487 1487 1487 1487 1487 1487 1487 1487 1486 1485 1485 1484 1483 1482 1481 1480 1479
1492 1497 1496 1490 1486 1491 1494 1493 1492 1495 1498 1496 1489 1481 1479 1479 1479 1479 1479 1479 1480 1481 1482 1483 1483 1484 1484 1484 1484 1484 1484 1484 1484 1483 1483 1482 1481 1480 1479 1478 1478 1477 1476 1475
1491 1494 1493 1490 1487 1487 1486 1486 1487 1488 1486 1486 1478 1478 1474 1476 1477 1477 1477 1478 1478 1479 1480 1480 1481 1481 1481 1481 1481 1480 1480 1480 1480 1479 1479 1478 1477 1476 1475 1474 1473 1472 1471 1470
1491 1493 1493 1490 1486 1486 1484 1481 1481 1481 1481 1480 1478 1476 1473 1474 1475 1475 1475 1476 1476 1476 1477 1478 1478 1478 1478 1478 1477 1477 1477 1476 1476 1475 1475 1474 1472 1471 1471 1469 1469 1468 1467 1466
1490 1493 1493 1489 1488 1485 1481 1476 1476 1476 1476 1476 1475 1473 1473 1474 1473 1473 1473 1473 1473 1474 1474 1475 1475 1475 1475 1475 1474 1473 1473 1472 1472 1471 1470 1469 1468 1467 1466 1465 1464 1463 1462 1461
1487 1489 1491 1491 1490 1485 1470 1470 1470 1472 1474 1474 1473 1472 1472 1471 1471 1470 1471 1471 1470 1471 1471 1472 1472 1472 1472 1472 1471 1470 1469 1469 1468 1467 1466 1465 1464 1462 1461 1460 1459 1458 1457 1456
1482 1486 1490 1491 1488 1477 1471 1469 1470 1472 1472 1470 1470 1470 1470 1470 1469 1469 1468 1468 1469 1469 1469 1470 1470 1469 1469 1468 1467 1467 1466 1465 1464 1463 1462 1461 1460 1458 1457 1456 1454 1453 1452 1451
1482 1483 1488 1488 1484 1475 1467 1469 1467 1470 1470 1466 1466 1467 1468 1469 1471 1467 1466 1466 1466 1467 1467 1467 1467 1466 1466 1465 1464 1463 1462 1461 1460 1459 1458 1457 1455 1454 1452 1451 1450 1449 1448 1447
1484 1486 1486 1484 1480 1470 1470 1468 1467 1472 1466 1463 1463 1464 1465 1465 1465 1464 1463 1463 1464 1464 1464 1464 1464 1463 1463 1462 1461 1460 1459 1458 1457 1455 1454 1452 1451 1449 1448 1446 1445 1444 1443 1442
1480 1483 1484 1483 1480 1473 1468 1468 1469 1466 1462 1461 1461 1461 1461 1461 1461 1460 1460 1460 1460 1460 1460 1460 1460 1460 1459 1459 1458 1456 1455 1454 1453 1451 1450 1448 1447 1445 1443 1442 1441 1440 1439 1437
1477 1475 1474 1474 1470 1466 1464 1463 1463 1462 1461 1460 1459 1459 1459 1458 1458 1458 1458 1457 1457 1457 1457 1457 1456 1456 1456 1455 1454 1453 1452 1450 1449 1447 1446 1444 1442 1441 1439 1437 1436 1435 1434 1433
1475 1473 1473 1471 1466 1464 1463 1461 1461 1461 1460 1459 1458 1458 1457 1456 1456 1455 1455 1455 1455 1454 1454 1453 1453 1452 1452 1451 1451 1449 1448 1446 1445 1443 1442 1440 1438 1436 1435 1434 1432 1431 1430 1429
1472 1472 1471 1469 1465 1463 1461 1460 1460 1459 1458 1457 1456 1456 1455 1454 1453 1453 1453 1452 1452 1452 1451 1451 1450 1449 1448 1447 1447 1446 1444 1443 1441 1440 1438 1436 1435 1433 1431 1430 1429 1427 1426 1425
1471 1471 1471 1466 1463 1463 1460 1458 1458 1457 1456 1455 1454 1453 1453 1452 1451 1451 1450 1450 1449 1449 1448 1448 1447 1446 1445 1444 1443 1442 1440 1439 1437 1436 1434 1433 1431 1429 1428 1426 1424 1424 1423 1421